Temp
50 51 51 51 51 51 51 51 51 52 52 53 54 54 54 54 54 54 50 55 48 44 51 54 49 41 43 45 39 52 54 56 56 43 41 39 45 57 59 64 62 60 59 61 62 59 57 84 82 71 78 84 85 86
50 51 51 51 51 51 51 51 51 51 52 52 53 54 54 54 53 53 47 59 56 43 49 58 59 59 52 47 41 48 49 47 59 56 50 44 42 48 50 51 69 60 68 65 68 67 79 85 82 85 86 84 86 86
50 51 51 51 51 51 51 51 51 51 52 52 53 53 54 53 53 52 50 52 52 49 56 59 56 62 64 63 61 45 48 52 54 55 54 56 43 54 46 52 57 67 75 68 69 72 76 81 85 86 87 86 88 90
50 50 50 51 51 51 51 51 51 51 52 52 53 53 54 54 53 53 49 57 54 50 44 52 67 62 67 66 64 62 56 56 55 57 51 50 49 55 51 54 52 61 64 68 68 75 76 80 84 85 86 88 87 88
49 49 50 50 50 51 51 51 51 51 52 52 53 53 53 54 53 56 56 55 58 48 45 53 62 66 66 65 63 63 60 56 57 51 49 50 57 55 56 57 54 62 57 61 64 73 74 76 83 85 84 85 86 86
49 49 50 50 50 50 50 50 51 51 52 53 53 53 52 53 53 53 46 56 60 56 45 42 63 61 63 63 61 60 61 59 59 56 55 57 60 50 46 49 60 64 66 70 68 77 75 77 79 83 82 85 87 86
49 49 49 50 50 50 50 50 51 51 52 52 52 52 52 52 58 51 49 56 55 60 45 42 47 54 56 58 58 59 61 59 60 58 56 56 54 53 48 45 62 68 69 71 74 74 69 75 76 83 84 86 83 89
49 49 50 50 50 50 50 50 51 51 52 51 51 51 52 52 53 52 62 56 56 52 51 38 42 46 54 49 47 56 53 57 58 56 58 56 58 55 44 55 61 67 71 71 73 75 73 77 78 78 82 84 85 87
49 49 50 50 50 50 50 50 51 51 51 51 51 51 58 57 55 57 54 54 61 53 44 45 37 34 53 46 47 48 51 42 57 51 54 55 51 46 54 58 59 65 66 68 73 75 74 72 75 77 79 81 81 84
49 50 50 50 50 50 50 50 51 51 51 52 58 61 51 59 54 58 53 49 47 49 51 48 50 39 42 39 41 45 49 42 40 52 57 49 49 57 60 63 66 67 69 71 65 64 69 69 74 76 77 80 82 85
49 50 50 50 50 50 50 51 50 50 54 58 54 53 61 58 59 52 47 47 49 44 51 50 48 41 46 37 37 40 39 44 37 48 46 48 50 57 62 63 68 68 68 69 70 70 72 73 74 75 78 81 83 85
49 49 50 50 50 50 51 50 50 58 59 52 51 53 57 58 54 47 45 50 48 44 54 50 49 50 47 43 35 38 36 40 36 47 43 45 56 60 65 64 66 68 69 69 70 69 70 70 74 76 77 79 83 86
49 49 49 49 50 51 50 50 50 50 52 57 51 51 51 51 38 39 35 43 44 52 54 53 43 47 48 42 36 34 32 34 40 36 41 47 51 56 58 61 65 68 69 67 67 70 71 71 75 75 74 78 81 84
49 49 49 50 50 51 50 50 50 54 59 56 50 35 42 41 44 44 41 42 48 48 47 45 47 43 44 39 38 33 37 34 33 33 35 40 42 45 49 53 57 59 59 64 65 67 70 72 74 77 78 81 82 82
49 49 49 52 52 51 50 50 50 62 62 53 53 39 41 49 51 51 53 52 52 51 53 52 50 45 40 37 37 35 34 32 33 32 36 40 44 45 46 48 48 53 55 62 64 63 71 74 75 73 74 76 74 74
48 49 58 52 51 50 50 57 66 67 63 56 53 46 54 51 52 54 55 53 58 58 58 57 46 41 36 36 34 32 32 30 32 33 42 44 45 46 46 47 48 49 50 56 52 63 63 63 65 67 68 70 71 71
48 62 52 51 50 49 53 61 65 58 57 53 49 56 55 54 52 54 56 56 63 56 48 48 38 35 40 35 33 33 31 32 34 43 48 49 48 48 48 48 47 48 48 50 54 58 60 63 68 66 64 66 66 67
57 61 53 50 51 56 66 66 60 57 51 57 51 56 58 58 58 57 59 59 59 56 55 47 47 38 34 32 32 36 35 42 45 47 51 56 57 56 54 51 52 50 50 50 52 54 58 62 64 63 63 63 64 65
52 53 49 48 50 53 57 60 60 50 54 59 60 61 61 60 62 64 63 63 61 62 59 54 45 38 37 41 42 43 43 44 44 48 51 57 59 60 61 59 58 56 54 54 55 54 55 58 60 63 66 64 59 61
47 48 49 50 51 58 54 57 63 54 51 56 60 59 58 59 61 61 62 62 61 58 51 46 46 49 51 48 51 50 52 53 51 49 49 56 60 60 60 60 62 62 61 60 60 55 58 58 61 61 59 58 59 59
53 58 55 58 63 60 58 58 57 57 55 54 60 59 57 60 59 57 58 61 57 53 50 55 54 58 61 57 56 55 58 61 57 57 56 56 61 61 62 64 62 61 62 61 60 60 59 61 62 63 63 65 66 65
60 50 59 61 56 57 55 61 56 59 56 56 57 59 53 51 54 57 61 55 56 57 59 59 59 60 60 61 59 62 60 62 62 64 56 59 61 61 62 60 62 63 64 63 64 63 63 64 65 66 66 66 63 65
53 54 56 56 50 47 46 62 51 55 48 52 54 50 51 54 57 62 52 56 58 61 62 62 61 61 60 62 64 63 63 63 62 62 63 64 65 64 64 65 62 59 59 62 66 66 64 52 61 67 68 68 67 66
45 51 48 48 49 42 54 49 52 50 50 48 47 45 49 54 58 52 49 55 60 60 58 59 62 60 60 61 59 61 64 64 63 65 65 62 60 63 65 64 65 65 62 64 64 64 65 66 58 67 67 66 66 65
40 36 41 33 49 46 43 44 45 45 42 46 43 45 48 56 46 48 49 56 58 57 56 59 58 58 55 56 57 59 64 65 60 59 64 66 65 65 62 65 63 64 66 60 59 61 64 64 64 65 62 62 63 64
32 38 36 43 44 43 45 40 42 43 45 42 44 49 50 47 42 43 50 58 57 58 55 55 56 55 56 59 57 58 61 65 65 59 62 65 63 61 60 60 60 59 64 64 62 60 61 64 64 63 62 59 47 62
31 34 46 55 51 51 46 49 50 45 41 40 44 43 43 37 40 52 58 60 61 61 62 61 60 55 54 57 61 61 63 64 61 62 65 65 65 63 62 59 56 57 63 62 63 63 63 63 62 62 60 61 62 63
40 46 41 43 47 48 43 43 42 41 44 50 47 40 39 40 41 57 60 61 63 63 62 63 63 63 61 59 62 61 62 65 63 63 65 66 64 63 62 63 61 39 58 59 59 62 62 62 62 62 61 61 61 62
41 47 51 43 44 44 43 43 44 50 54 52 44 43 47 55 59 59 61 62 63 61 59 59 60 63 61 61 62 63 62 61 57 52 52 53 54 58 62 62 62 62 63 62 33 45 53 57 59 60 61 61 61 61
41 50 44 43 40 40 47 52 51 56 58 57 57 56 55 57 60 63 62 61 60 59 60 60 61 61 58 54 50 53 60 58 57 55 52 52 55 59 60 59 59 61 61 61 60 61 42 54 51 58 54 51 49 50
51 50 45 44 43 49 53 57 57 57 56 55 56 52 51 55 59 62 61 62 61 60 58 57 58 60 57 55 50 48 45 52 52 52 51 56 58 57 56 57 59 59 59 57 56 55 56 52 50 47 47 46 45 44
49 46 45 41 42 50 55 52 51 50 52 51 51 54 53 52 48 54 59 59 58 55 50 52 55 50 52 51 49 49 37 50 45 43 42 47 52 53 56 57 58 57 56 55 53 50 49 47 46 46 44 44 44 43
45 48 46 45 42 43 49 49 43 44 46 43 47 50 51 49 44 52 56 55 52 51 48 50 50 50 47 47 45 46 44 47 38 32 32 32 31 34 48 53 53 53 52 50 50 49 47 46 44 44 43 42 41 40
MSLP
1022.27 1021.38 1020.54 1019.85 1019.12 1018.38 1017.58 1016.88 1016.12 1015.28 1014.46 1013.70 1012.89 1012.00 1011.55 1011.39 1011.29 1011.46 1010.79 1010.36 1010.31 1009.32 1007.15 1006.32 1006.49 1006.90 1006.53 1005.40 1004.31 1001.69 1000.49 1000.53 1000.18 1000.83 1001.03 1000.76 998.19 994.40 991.75 990.23 989.32 989.42 989.21 988.60 988.79 988.06 987.18 987.27 987.40 988.28 988.43 988.55 988.75 989.40
1022.23 1021.28 1020.41 1019.62 1018.92 1018.20 1017.44 1016.73 1016.04 1015.27 1014.47 1013.73 1012.97 1012.21 1011.69 1011.38 1011.38 1011.50 1010.54 1009.95 1009.87 1009.54 1007.27 1006.24 1005.39 1004.97 1006.10 1006.00 1005.50 1003.47 1001.88 1001.72 999.38 999.11 999.93 1000.32 999.95 997.20 994.37 990.99 989.66 989.41 988.74 988.34 987.98 987.95 987.43 987.17 987.52 987.99 988.58 988.88 988.95 989.38
1022.16 1021.22 1020.31 1019.40 1018.61 1017.91 1017.19 1016.50 1015.83 1015.18 1014.42 1013.67 1013.03 1012.50 1012.01 1011.73 1011.60 1011.55 1010.70 1009.93 1009.36 1008.19 1005.16 1003.91 1003.24 1003.56 1004.22 1004.09 1004.03 1003.85 1002.97 1002.71 1001.15 1000.92 999.20 998.13 998.77 998.32 996.20 994.06 992.47 990.45 989.24 988.55 988.45 988.17 987.82 987.66 987.91 988.70 988.94 988.96 989.33 989.67
1022.01 1021.08 1020.18 1019.31 1018.42 1017.67 1016.95 1016.22 1015.53 1014.90 1014.23 1013.51 1012.87 1012.41 1012.03 1011.71 1011.44 1011.14 1010.54 1009.66 1009.01 1008.29 1006.24 1003.93 1003.33 1002.75 1002.92 1003.18 1003.15 1003.08 1003.00 1003.09 1002.28 1001.13 999.98 999.10 998.05 997.91 996.92 995.97 995.14 992.89 992.24 989.28 989.15 988.43 989.30 988.48 988.54 988.91 989.13 989.22 989.89 990.17
1021.77 1020.86 1019.98 1019.12 1018.22 1017.39 1016.62 1015.83 1015.10 1014.47 1013.85 1013.18 1012.54 1012.03 1011.66 1011.38 1011.17 1010.53 1009.72 1009.32 1009.11 1008.94 1006.69 1004.21 1003.12 1002.34 1002.57 1002.51 1002.58 1002.43 1002.43 1002.51 1001.48 1001.05 1000.44 999.31 998.84 998.39 997.60 996.81 995.62 994.58 994.05 991.34 990.00 990.07 989.67 989.18 989.46 989.54 989.68 989.74 990.32 990.67
1021.48 1020.59 1019.64 1018.77 1017.92 1017.02 1016.21 1015.43 1014.65 1013.91 1013.21 1012.59 1012.02 1011.60 1011.24 1010.97 1010.77 1010.22 1009.22 1009.08 1008.52 1008.61 1007.70 1004.88 1002.53 1002.17 1002.18 1002.35 1002.27 1001.88 1001.63 1001.52 1000.90 999.92 999.19 999.56 999.37 999.68 998.20 996.48 995.59 994.88 994.34 992.91 991.39 990.71 990.99 990.99 991.01 990.73 990.71 990.53 990.73 990.95
1021.15 1020.20 1019.26 1018.38 1017.53 1016.66 1015.79 1014.97 1014.11 1013.25 1012.47 1011.85 1011.34 1010.95 1010.67 1010.56 1010.28 1009.67 1009.30 1009.00 1008.89 1008.26 1007.72 1005.66 1003.59 1003.53 1003.39 1002.86 1002.69 1001.91 1001.21 1000.87 1000.21 999.60 999.04 998.69 998.98 999.23 998.35 996.62 994.97 993.96 993.98 993.25 992.69 992.13 992.35 991.98 991.33 991.38 991.27 990.96 990.46 990.50
1020.78 1019.80 1018.87 1017.99 1017.11 1016.23 1015.33 1014.47 1013.55 1012.62 1011.72 1011.06 1010.60 1010.24 1010.06 1009.93 1009.76 1009.21 1008.36 1008.82 1008.92 1007.84 1007.18 1006.37 1004.72 1004.10 1004.09 1003.23 1002.82 1002.48 1001.62 1000.58 999.77 999.26 998.78 998.12 997.71 997.46 997.55 996.52 995.55 993.93 992.68 992.64 992.58 992.64 993.33 992.73 992.51 992.13 991.89 991.37 990.56 990.15
1020.38 1019.43 1018.47 1017.58 1016.67 1015.78 1014.86 1014.00 1013.05 1012.01 1011.05 1010.33 1009.87 1009.65 1009.29 1009.14 1007.94 1007.85 1008.60 1008.56 1007.99 1007.86 1006.38 1005.78 1005.13 1004.77 1004.23 1003.85 1003.38 1002.75 1002.33 1001.34 999.88 998.82 998.17 997.97 997.25 996.33 995.41 995.43 994.95 994.03 993.42 992.67 992.46 992.54 993.18 993.44 993.20 992.85 992.15 991.50 991.41 990.78
1020.01 1019.03 1018.07 1017.17 1016.25 1015.33 1014.43 1013.60 1012.69 1011.62 1010.60 1009.63 1008.99 1007.96 1007.78 1007.65 1008.31 1008.18 1008.12 1007.57 1007.52 1007.01 1006.00 1004.83 1004.38 1004.67 1005.37 1004.85 1003.92 1002.88 1002.37 1001.37 999.77 997.90 997.46 996.70 995.73 995.59 995.48 994.90 994.34 993.92 993.34 993.12 993.00 993.08 993.18 993.80 993.14 992.63 992.61 992.39 991.63 990.94
1019.66 1018.64 1017.69 1016.79 1015.87 1014.88 1014.05 1013.31 1012.48 1011.36 1010.29 1009.69 1009.29 1008.63 1008.02 1007.96 1007.54 1007.28 1006.70 1006.16 1005.66 1005.25 1004.47 1003.81 1003.91 1004.03 1004.37 1004.69 1004.24 1003.95 1002.66 1001.09 999.57 997.20 996.51 995.20 993.82 993.34 993.82 993.82 993.46 993.52 993.57 993.02 993.19 993.77 993.78 993.49 993.10 992.60 992.31 992.15 991.67 991.02
1019.18 1018.19 1017.29 1016.42 1015.46 1014.48 1013.76 1013.08 1012.43 1011.24 1010.46 1011.16 1011.01 1010.30 1008.96 1007.21 1006.86 1006.67 1005.96 1005.16 1004.75 1003.90 1003.04 1002.71 1002.75 1002.70 1003.29 1004.23 1004.30 1003.93 1002.93 1001.56 999.33 998.39 997.09 994.53 992.61 992.35 991.81 992.77 992.96 992.96 993.05 993.15 993.39 993.78 994.03 993.94 993.20 992.58 992.25 991.81 991.25 990.75
1018.69 1017.70 1016.84 1015.99 1015.06 1014.11 1013.42 1012.75 1012.20 1011.72 1011.08 1010.56 1010.41 1008.87 1008.13 1007.67 1007.41 1007.07 1006.70 1005.55 1004.91 1003.83 1003.10 1002.78 1002.85 1002.68 1002.66 1003.56 1003.89 1003.68 1002.86 1001.40 1000.66 999.27 996.96 995.17 994.91 994.21 993.77 993.23 992.65 992.75 992.98 993.24 993.36 993.37 993.26 993.21 992.83 992.74 992.54 992.06 991.35 990.52
1018.20 1017.16 1016.38 1015.51 1014.72 1013.79 1012.90 1012.30 1011.75 1010.88 1010.23 1009.00 1008.58 1008.78 1008.50 1007.82 1007.40 1007.37 1007.00 1006.22 1005.59 1005.12 1004.13 1003.35 1002.46 1002.62 1002.52 1002.76 1003.11 1003.11 1002.40 1001.87 1000.64 999.32 998.14 997.47 997.10 996.63 996.04 995.55 995.00 994.29 994.14 993.52 993.51 993.25 992.61 992.39 991.81 991.72 991.68 991.22 990.99 990.77
1017.80 1016.50 1015.84 1014.96 1014.16 1013.39 1012.53 1011.75 1011.25 1010.37 1009.23 1008.64 1008.42 1008.39 1008.23 1007.80 1007.02 1006.23 1005.53 1005.32 1004.74 1004.09 1002.78 1001.78 1001.94 1002.69 1002.91 1003.15 1003.32 1003.21 1002.72 1001.87 1001.34 1000.30 999.28 998.73 997.72 996.85 996.23 995.44 995.49 995.55 994.89 993.77 993.36 992.72 991.62 991.01 991.06 991.53 991.92 991.79 992.14 992.58
1017.47 1015.76 1014.74 1014.41 1013.90 1013.10 1012.16 1010.82 1009.98 1009.48 1008.85 1008.53 1008.47 1008.41 1007.41 1006.99 1006.26 1005.59 1004.82 1004.38 1004.04 1003.25 1002.10 1001.97 1002.56 1003.12 1003.88 1004.36 1004.12 1004.27 1003.81 1003.15 1002.24 1000.94 999.43 998.43 998.17 997.39 996.59 996.09 995.86 995.52 995.20 994.46 993.25 991.75 992.00 992.52 992.86 993.10 993.20 993.59 994.16 994.60
1017.19 1014.92 1014.70 1014.43 1013.79 1012.77 1011.49 1010.80 1009.50 1009.11 1008.65 1008.45 1008.48 1007.79 1007.11 1006.74 1006.09 1005.67 1005.23 1004.54 1003.71 1003.40 1002.93 1003.27 1004.11 1004.68 1005.02 1004.92 1004.84 1005.04 1004.50 1003.73 1002.31 1000.45 999.04 998.36 998.22 997.69 997.44 997.28 997.14 996.80 996.25 995.96 993.39 993.85 994.25 994.20 994.14 994.31 994.61 995.19 995.53 995.67
1016.80 1015.34 1014.96 1014.71 1014.13 1012.29 1010.75 1010.23 1009.61 1009.05 1008.46 1008.14 1007.87 1007.23 1006.84 1006.49 1005.61 1005.34 1004.88 1004.71 1004.15 1003.44 1003.05 1003.65 1004.86 1005.29 1005.78 1005.78 1005.38 1005.01 1004.54 1003.39 1002.03 1001.03 999.83 998.63 998.11 997.84 997.87 997.92 997.85 997.76 997.28 996.56 995.90 996.37 995.97 995.31 995.09 995.21 995.96 996.08 996.24 996.85
1016.82 1015.92 1015.23 1014.74 1014.57 1013.62 1011.15 1010.15 1010.00 1009.10 1008.46 1007.88 1007.46 1007.05 1006.55 1006.22 1005.73 1005.20 1005.05 1004.72 1004.42 1004.04 1003.76 1003.79 1004.68 1005.62 1005.98 1006.19 1005.78 1005.31 1004.56 1003.87 1003.02 1001.83 1000.68 999.59 998.60 997.95 997.73 997.83 998.03 998.10 997.80 997.52 997.43 997.43 997.19 997.20 996.95 996.80 996.92 997.53 997.97 998.00
1015.86 1015.10 1014.77 1014.04 1013.97 1012.33 1010.91 1010.04 1009.94 1009.25 1008.47 1008.05 1007.38 1006.83 1006.51 1006.20 1005.79 1005.39 1005.17 1004.90 1004.72 1004.48 1004.63 1005.17 1005.40 1005.49 1005.19 1005.91 1005.45 1004.88 1004.18 1003.52 1002.92 1002.17 1001.46 1000.06 999.17 998.78 998.58 998.29 997.96 997.99 998.17 998.14 997.93 997.66 998.06 998.27 998.03 997.81 998.07 998.41 998.90 998.90
1015.16 1013.91 1013.70 1013.29 1012.22 1011.86 1011.02 1009.90 1009.20 1009.08 1008.82 1008.13 1007.34 1006.94 1006.53 1006.11 1005.56 1005.36 1005.21 1005.23 1005.09 1005.11 1005.12 1005.30 1005.56 1005.24 1004.83 1005.02 1005.33 1004.86 1003.64 1002.73 1002.41 1002.12 1001.52 1000.59 999.96 999.61 999.30 998.72 998.62 998.54 998.38 998.64 998.55 999.01 999.14 999.33 999.07 998.69 999.08 999.27 999.36 999.56
1014.45 1014.41 1013.57 1012.66 1012.04 1011.32 1010.80 1010.02 1009.78 1009.07 1008.84 1007.92 1007.37 1006.95 1006.70 1006.40 1005.82 1005.46 1005.59 1005.37 1005.25 1005.32 1005.36 1005.32 1005.39 1005.09 1004.64 1004.24 1004.31 1003.97 1003.62 1003.08 1002.44 1001.73 1001.48 1000.85 1000.45 1000.09 999.72 999.83 999.49 999.03 998.90 998.96 999.31 999.59 999.77 999.80 999.77 999.40 999.34 999.84 1000.16 1000.34
1014.78 1014.48 1013.37 1012.44 1011.84 1011.19 1010.47 1009.93 1009.50 1008.81 1008.49 1007.80 1007.72 1007.11 1006.66 1006.31 1006.01 1005.99 1005.98 1005.68 1005.74 1005.80 1005.69 1005.67 1005.57 1005.36 1005.12 1004.91 1004.20 1003.97 1003.80 1003.39 1002.71 1002.41 1001.93 1001.58 1001.30 1001.07 1000.71 1000.50 1000.61 1000.38 1000.18 999.84 999.61 999.75 1000.03 1000.19 999.91 999.78 999.62 999.70 999.86 1000.05
1015.24 1014.17 1012.84 1011.85 1011.25 1010.79 1010.16 1009.57 1009.61 1009.21 1008.76 1008.40 1008.00 1007.47 1006.88 1006.60 1006.61 1006.14 1005.61 1005.61 1005.58 1005.88 1006.14 1006.12 1005.67 1005.46 1005.48 1004.92 1004.89 1004.25 1004.01 1003.75 1003.43 1002.94 1002.59 1002.50 1002.19 1001.88 1001.94 1002.05 1001.79 1001.41 1001.34 1001.00 1000.73 1000.70 1000.50 1000.34 1000.37 1000.16 1000.16 1000.17 1000.12 1000.30
1014.79 1013.75 1013.00 1011.81 1010.77 1010.33 1009.85 1009.43 1009.30 1009.14 1008.79 1008.54 1008.45 1007.80 1007.19 1007.00 1006.91 1005.76 1005.52 1005.37 1005.52 1005.90 1006.31 1006.31 1006.59 1006.26 1005.93 1005.82 1005.59 1004.96 1004.71 1004.00 1003.83 1003.57 1003.42 1002.91 1002.64 1002.56 1002.82 1002.71 1003.22 1003.18 1002.53 1002.41 1002.11 1001.63 1001.29 1001.26 1001.18 1001.08 1001.43 1001.53 1001.28 1000.81
1014.03 1012.57 1011.88 1010.40 1009.83 1009.61 1009.09 1008.96 1008.90 1008.70 1008.50 1008.60 1008.45 1008.15 1007.79 1007.35 1006.80 1005.83 1005.44 1005.41 1005.82 1006.15 1006.57 1006.84 1006.91 1006.63 1006.18 1005.91 1005.68 1005.53 1005.16 1004.94 1004.13 1004.16 1004.36 1004.16 1003.99 1003.60 1003.53 1003.51 1003.70 1004.42 1004.37 1003.81 1003.16 1002.96 1002.63 1002.36 1002.16 1002.30 1002.40 1002.35 1002.35 1001.76
1012.70 1011.16 1010.10 1009.31 1008.84 1008.70 1008.73 1008.42 1008.53 1008.50 1008.52 1008.35 1008.10 1008.09 1007.86 1007.15 1006.06 1005.40 1005.58 1005.86 1006.35 1006.45 1006.56 1006.44 1006.56 1007.00 1006.88 1006.45 1006.25 1006.31 1005.97 1005.61 1005.52 1005.43 1005.35 1005.19 1005.14 1005.11 1005.01 1005.05 1005.32 1005.77 1004.98 1005.02 1004.55 1003.98 1003.38 1003.20 1003.26 1003.17 1003.11 1003.22 1003.28 1003.14
1010.85 1009.37 1008.63 1008.75 1008.57 1008.62 1008.37 1008.18 1008.17 1007.91 1007.50 1007.41 1007.70 1007.66 1007.19 1006.69 1006.25 1005.77 1006.00 1006.36 1006.28 1006.49 1006.57 1006.55 1006.39 1006.26 1006.44 1006.56 1006.63 1006.58 1006.18 1005.90 1005.97 1005.96 1005.58 1005.64 1005.74 1005.79 1005.82 1005.77 1006.21 1006.34 1005.98 1006.14 1005.74 1005.19 1004.81 1004.22 1004.01 1004.12 1004.07 1003.99 1004.16 1004.38
1008.87 1008.04 1007.60 1007.68 1008.02 1008.12 1007.88 1007.41 1007.01 1006.51 1006.51 1006.45 1006.78 1006.81 1006.61 1006.19 1005.98 1005.89 1005.96 1006.12 1006.28 1006.21 1006.19 1006.04 1005.93 1006.00 1006.24 1006.56 1006.74 1006.84 1006.64 1006.31 1005.83 1005.88 1005.65 1005.52 1005.49 1005.84 1006.11 1006.10 1006.03 1005.94 1005.79 1005.60 1006.70 1006.41 1006.26 1006.41 1006.10 1005.77 1005.02 1004.91 1005.03 1005.08
1007.60 1007.32 1007.00 1007.04 1007.29 1006.81 1006.24 1006.14 1005.80 1005.67 1005.67 1005.79 1005.94 1006.07 1006.15 1005.95 1005.95 1006.02 1005.95 1005.85 1005.72 1005.64 1005.71 1005.79 1005.73 1005.60 1005.73 1006.48 1007.09 1007.33 1007.26 1007.38 1007.26 1007.06 1006.61 1006.68 1006.44 1006.70 1006.75 1006.70 1006.56 1006.37 1006.41 1006.26 1006.40 1006.19 1006.54 1006.19 1006.27 1006.45 1006.50 1006.97 1007.24 1006.86
1006.06 1006.10 1006.20 1006.35 1006.14 1005.78 1005.44 1005.15 1005.31 1005.56 1005.71 1005.80 1005.89 1005.87 1005.80 1005.65 1005.48 1005.44 1005.43 1005.46 1005.58 1005.99 1006.30 1006.08 1005.70 1005.61 1005.60 1006.39 1007.34 1007.98 1008.25 1008.59 1008.86 1008.77 1008.93 1008.15 1007.72 1007.70 1007.71 1007.57 1007.37 1007.21 1007.16 1007.17 1007.35 1007.41 1007.18 1007.41 1007.58 1007.87 1007.78 1007.91 1008.12 1008.19
1005.31 1005.30 1005.57 1005.68 1005.78 1005.69 1005.18 1004.91 1005.10 1005.31 1005.34 1005.26 1005.07 1004.97 1004.96 1004.99 1005.08 1005.30 1005.56 1006.14 1006.13 1006.41 1006.58 1006.69 1006.40 1007.16 1007.86 1008.26 1008.72 1009.21 1009.91 1009.51 1010.19 1010.44 1010.64 1010.10 1009.32 1009.15 1008.60 1008.35 1008.10 1008.03 1007.81 1007.88 1008.10 1008.31 1008.42 1008.56 1008.65 1008.69 1008.89 1008.96 1009.06 1009.23
1005.16 1005.01 1005.29 1005.28 1005.45 1005.38 1005.14 1005.28 1005.38 1005.42 1005.38 1005.37 1005.35 1005.17 1004.98 1004.98 1005.18 1005.76 1007.09 1007.64 1007.80 1008.08 1008.36 1008.53 1008.93 1009.03 1009.36 1009.53 1009.79 1009.93 1010.03 1010.70 1011.73 1011.96 1011.95 1011.92 1011.60 1011.01 1010.07 1009.52 1009.23 1008.97 1008.95 1009.04 1009.02 1009.18 1009.31 1009.47 1009.61 1009.78 1010.01 1010.21 1010.42 1010.54
Wind_Speed
25 23 21 21 21 20 21 21 22 22 23 24 23 23 9 7 8 8 4 5 4 4 13 14 4 5 7 4 5 8 10 13 12 11 7 4 9 13 19 24 27 20 19 16 18 18 17 20 19 22 10 2 14 19
25 24 22 20 20 20 20 20 21 21 21 22 22 19 13 6 3 7 5 2 4 4 10 18 19 12 13 13 6 7 5 5 7 11 7 5 8 6 12 10 18 22 19 15 17 11 7 12 12 17 9 9 8 12
26 24 23 21 20 19 19 20 20 20 21 20 19 18 12 7 3 7 6 5 5 6 12 12 6 7 15 16 9 3 5 8 10 9 8 6 6 5 6 8 8 16 22 14 15 12 12 9 9 14 11 10 10 9
25 24 23 23 21 20 19 19 19 19 19 19 17 16 13 11 10 11 4 6 5 5 5 6 4 4 0 5 7 6 3 10 9 8 8 7 5 7 9 9 6 13 11 9 14 7 16 12 12 7 11 9 8 5
24 24 23 23 22 21 21 21 20 19 19 19 18 16 14 13 12 12 6 4 2 5 6 9 14 5 6 7 9 8 6 8 9 7 5 8 9 7 12 15 11 9 14 8 8 8 6 7 8 5 7 10 6 9
24 24 24 23 23 22 23 23 22 21 20 19 19 17 16 13 10 4 2 3 4 4 5 5 7 6 4 7 9 11 8 8 9 10 5 4 13 3 7 14 22 17 21 20 14 4 1 9 9 7 6 8 10 12
24 24 24 24 24 24 23 24 23 22 22 20 18 16 14 11 8 4 5 6 8 7 3 6 5 5 13 6 5 9 8 8 8 8 9 9 9 5 6 13 17 21 24 19 16 8 4 11 9 9 10 13 12 10
24 25 25 25 25 24 24 24 24 24 23 21 18 13 10 9 11 6 2 4 6 5 4 3 6 3 6 3 4 4 5 7 7 8 9 10 11 9 7 15 22 23 18 22 23 12 9 15 8 12 11 12 14 12
24 25 26 25 25 24 24 24 24 25 24 21 14 8 5 5 3 2 7 8 4 5 4 3 3 4 6 4 4 3 4 4 5 8 11 9 10 10 12 15 16 20 18 18 19 16 12 16 18 13 14 14 14 15
25 25 26 26 25 25 23 22 24 24 23 20 9 4 0 4 5 8 2 2 3 3 4 6 1 3 1 1 4 3 3 4 4 7 9 13 15 20 21 19 16 16 17 20 19 13 15 19 21 21 17 15 15 15
26 25 26 26 26 24 21 22 22 23 5 5 5 4 8 6 3 3 4 3 4 4 4 5 4 8 5 4 3 2 3 4 5 6 8 7 13 19 23 23 20 16 17 15 13 13 17 17 15 18 20 18 19 18
27 26 25 26 25 22 21 21 18 11 6 6 5 5 5 4 2 5 5 4 3 4 6 6 11 10 1 3 3 3 3 4 7 5 4 7 11 5 18 23 22 19 17 17 16 17 19 22 20 16 13 17 20 18
27 27 26 25 23 20 20 20 18 14 14 4 4 3 4 4 6 6 8 6 7 8 10 14 11 5 2 4 3 2 5 5 5 4 5 5 8 10 10 5 11 16 17 17 18 18 18 21 21 20 18 18 18 16
28 28 26 23 19 22 22 21 17 11 7 4 5 4 5 4 3 3 9 11 10 11 14 12 10 3 3 2 2 3 2 2 4 4 2 5 9 9 8 6 9 11 12 16 16 20 19 21 17 19 20 17 18 14
29 30 25 13 21 23 23 20 16 7 4 5 4 5 5 6 6 5 5 6 6 7 11 8 6 2 3 4 3 4 5 3 4 5 3 6 8 6 7 10 14 15 13 15 14 17 22 19 14 11 10 11 12 13
28 29 5 19 23 25 25 14 4 3 1 4 4 6 9 10 12 11 10 10 10 13 11 3 5 5 4 7 5 6 10 6 6 4 3 5 10 11 13 14 15 13 10 6 9 11 15 13 14 15 17 15 15 16
27 6 18 21 25 28 13 5 3 3 4 4 4 7 8 9 9 9 7 10 9 9 10 6 8 7 6 6 5 5 6 6 8 8 9 11 9 7 10 15 12 14 15 9 5 15 12 12 17 17 17 15 15 16
10 16 19 21 18 13 4 2 3 3 3 3 3 7 8 8 9 9 8 8 9 9 7 4 3 6 5 7 7 7 4 9 11 10 12 13 14 14 13 12 10 12 8 9 15 12 10 13 15 13 14 12 12 11
20 19 24 19 9 6 4 2 2 4 3 5 5 6 5 7 7 8 9 9 7 7 7 6 6 4 4 3 10 9 7 7 7 11 12 14 15 15 15 15 15 12 10 9 13 10 10 13 11 11 10 9 7 7
31 16 13 12 4 4 5 2 2 4 3 4 7 5 5 5 7 6 7 7 7 7 6 5 6 7 7 6 7 7 4 5 5 8 10 10 10 11 12 10 10 12 11 11 9 11 10 7 9 8 8 7 7 6
18 6 9 5 3 4 4 4 4 1 4 4 6 6 5 5 5 5 5 5 6 4 6 6 7 6 7 8 3 6 8 7 7 9 10 9 9 8 10 10 10 8 9 9 10 11 10 9 9 9 8 7 6 7
5 6 6 2 4 3 4 3 4 5 3 6 5 5 4 4 4 5 5 3 3 4 6 6 6 7 6 8 6 7 9 10 10 7 7 7 10 10 9 8 9 10 10 9 11 10 10 9 9 10 9 9 9 7
11 4 5 4 4 2 6 1 5 2 4 4 5 5 4 1 4 5 2 2 1 5 6 7 8 10 7 9 6 8 8 8 8 9 8 9 9 10 9 11 9 8 8 9 9 9 8 7 9 9 9 10 9 8
6 5 5 4 6 4 3 4 3 3 4 3 3 4 5 3 4 5 3 3 1 4 5 7 7 5 6 5 7 6 8 6 5 6 8 9 7 8 10 10 10 10 8 7 7 8 8 7 6 8 9 9 9 9
4 6 4 6 5 5 5 4 5 4 5 3 5 6 4 2 4 5 3 2 3 4 4 6 7 8 5 4 5 7 8 8 5 6 8 8 6 5 6 9 10 10 10 8 9 9 9 8 8 10 11 10 11 9
6 6 8 7 4 6 6 4 6 6 5 4 4 4 2 3 5 6 3 0 4 5 5 4 4 5 6 6 5 5 7 8 7 3 6 6 7 7 7 8 7 8 9 9 8 8 9 9 9 10 8 8 6 9
7 8 7 5 4 5 4 4 3 3 5 5 4 3 4 4 5 2 2 4 1 4 5 4 2 4 6 7 6 6 6 4 6 5 4 5 5 5 6 6 7 7 7 9 9 9 8 8 8 8 8 9 10 11
9 7 14 10 8 6 7 5 5 5 6 5 2 5 4 6 5 1 1 4 4 6 6 7 6 5 5 4 5 5 5 4 5 5 4 2 4 5 5 5 5 4 4 8 8 7 9 9 7 8 8 8 8 9
7 6 9 12 11 6 7 8 6 6 5 5 8 8 9 6 6 6 7 7 7 6 7 8 7 6 4 6 3 3 4 5 7 7 10 4 4 6 5 5 5 5 5 5 6 7 8 7 8 8 7 10 9 9
8 10 8 10 10 9 7 8 7 6 6 6 6 6 7 7 6 6 7 8 8 8 8 9 10 8 5 4 5 3 3 5 7 8 5 3 5 5 5 6 6 6 6 6 6 5 7 5 5 8 10 8 7 7
5 9 12 9 11 9 10 7 7 6 5 6 7 8 9 10 8 7 7 7 5 6 8 10 10 9 5 4 3 3 2 5 7 8 9 8 5 6 6 5 5 5 5 6 6 7 6 7 7 8 8 9 9 8
6 9 11 11 8 8 8 6 6 8 9 11 11 11 10 10 9 8 5 4 5 5 7 8 8 8 6 5 5 4 1 3 4 5 8 8 8 7 5 5 5 5 5 5 6 6 8 8 6 7 8 10 10 10
8 8 7 8 4 5 5 7 6 10 10 8 11 12 12 11 13 3 4 6 7 8 7 7 6 7 7 6 6 4 5 8 8 6 6 6 8 9 7 6 5 6 6 6 6 7 8 10 9 10 10 10 11 11
Wind_Direction
338 342 340 339 340 341 342 342 342 342 344 348 344 338 334 315 232 224 271 261 253 264 285 273 207 238 285 283 293 321 189 205 222 178 184 210 277 240 240 202 184 198 201 204 211 200 214 200 173 185 210 247 181 197
337 340 340 336 336 337 339 339 339 339 342 345 346 353 352 344 241 223 286 277 244 238 285 294 283 256 231 244 264 311 300 303 265 211 175 135 250 315 316 255 202 205 206 205 212 203 206 201 212 160 180 158 160 176
337 336 338 337 333 333 334 335 336 337 339 341 344 349 3 8 308 255 296 300 271 279 271 227 275 130 201 224 240 296 314 349 309 339 321 208 207 260 264 256 235 255 202 211 210 169 150 161 175 172 209 196 196 205
333 333 333 334 335 332 330 328 329 333 334 335 337 333 326 323 322 312 285 288 294 290 276 355 271 233 43 262 250 270 276 282 295 298 297 283 256 190 263 288 285 251 329 218 197 200 168 163 185 169 192 212 97 271
329 329 329 330 330 329 325 323 322 325 329 330 332 326 316 305 305 292 286 274 328 306 310 305 301 295 303 248 259 273 260 263 259 253 263 263 245 250 244 258 259 277 265 254 195 155 241 170 182 219 206 219 205 229
326 326 326 325 325 326 325 324 323 321 319 321 323 319 308 299 306 308 288 212 287 22 283 301 324 294 242 252 279 268 260 240 256 279 271 226 278 310 262 244 246 240 259 269 293 74 94 318 330 316 297 257 202 222
324 323 323 324 324 325 325 323 322 321 318 316 316 310 296 291 278 266 293 347 336 324 273 297 300 351 333 325 301 283 256 257 252 260 260 257 251 216 253 267 256 238 236 249 260 299 268 262 264 251 254 263 253 214
320 321 322 323 324 324 325 323 321 320 318 316 313 308 287 275 264 266 270 215 310 249 246 267 282 326 308 257 265 241 274 273 252 252 253 242 254 215 234 245 256 268 260 234 248 225 245 275 307 295 288 288 281 248
320 321 322 324 325 325 324 322 323 323 320 318 309 297 242 233 229 71 355 273 242 283 292 232 261 307 323 326 294 221 236 261 263 247 248 250 240 245 233 239 261 251 249 250 235 212 209 251 247 246 272 277 262 260
319 321 323 325 326 324 323 325 330 325 321 305 277 221 344 38 335 291 156 212 206 236 234 267 288 262 206 234 276 250 212 231 246 235 230 236 239 237 243 248 236 237 247 233 229 246 220 233 243 239 240 251 261 252
319 321 323 326 326 322 322 333 331 320 294 350 356 316 350 318 255 240 278 264 210 248 230 277 313 294 174 232 243 236 251 263 244 239 197 228 230 228 225 232 234 214 236 247 238 233 246 253 237 243 242 246 243 246
319 321 325 327 323 318 328 334 335 313 357 332 304 280 270 269 331 312 317 306 281 294 301 310 329 326 287 168 227 218 253 240 254 10 249 241 244 279 212 209 224 229 232 235 225 227 231 243 244 253 265 262 237 239
319 321 325 325 319 318 332 335 332 304 276 230 227 260 2 344 4 1 339 316 328 318 315 327 311 296 209 186 213 231 237 242 336 248 258 27 11 348 359 318 226 214 225 231 232 244 228 231 227 231 237 246 260 242
319 320 324 319 313 328 329 332 326 310 261 339 325 10 16 337 315 299 285 284 303 297 300 296 297 264 248 223 226 254 278 291 258 249 329 22 359 347 341 303 278 249 250 237 225 234 218 225 216 222 232 219 233 224
319 317 320 315 338 330 327 324 309 276 314 342 345 343 5 316 329 289 298 354 334 281 303 318 330 12 338 322 7 306 317 346 340 308 335 13 7 323 296 277 220 251 258 240 241 227 219 197 178 148 141 104 82 74
322 310 2 351 336 327 320 308 254 279 298 320 17 334 348 356 9 1 1 17 4 340 336 12 357 354 345 334 332 12 328 344 307 277 236 215 63 43 31 49 43 29 34 12 316 139 113 116 129 112 99 104 105 88
314 295 354 342 330 313 294 290 300 313 326 347 338 322 12 354 13 1 360 357 2 359 4 12 14 345 324 324 345 3 323 291 279 339 3 81 89 63 81 84 63 18 30 6 44 78 85 105 112 105 99 92 85 76
297 316 329 327 327 291 284 307 309 285 294 330 339 330 356 334 356 357 19 1 347 4 1 26 77 1 350 335 339 346 315 342 358 2 13 25 68 80 87 68 80 86 35 19 55 55 60 86 90 80 76 68 71 68
304 304 302 298 305 302 293 319 339 301 287 309 349 325 336 341 343 5 17 12 357 6 14 19 31 4 345 331 346 1 4 16 351 352 6 26 39 40 70 89 88 75 84 69 70 62 51 58 65 63 67 73 57 54
297 285 286 280 245 272 269 257 217 261 275 306 281 323 318 307 324 346 10 29 2 28 20 45 19 11 11 53 347 352 10 11 359 10 6 359 31 40 50 46 54 83 76 75 79 77 79 63 62 78 68 52 56 50
296 9 327 274 225 254 278 297 280 235 295 278 303 306 324 311 321 339 7 11 34 33 23 27 16 355 2 100 73 344 349 15 53 27 16 11 15 43 22 34 50 45 63 65 64 72 73 86 88 72 75 82 103 103
291 348 286 246 263 236 253 220 284 310 263 278 296 305 296 289 284 337 338 341 43 32 19 21 358 7 353 29 41 23 5 17 1 44 22 33 30 23 38 43 21 39 50 57 65 63 66 53 71 70 83 105 91 61
288 210 232 239 250 240 260 238 253 246 276 307 327 305 277 277 298 344 310 331 58 23 8 23 346 348 15 4 23 34 35 11 11 14 19 37 40 36 33 33 38 25 33 22 42 71 67 38 41 56 68 71 67 67
143 256 257 240 210 242 239 221 230 233 274 277 276 278 294 278 314 278 228 223 41 52 18 4 336 10 329 25 4 37 4 34 340 36 8 33 19 49 55 38 24 25 20 22 37 34 22 41 25 51 46 46 52 70
262 252 203 253 240 211 220 210 213 230 252 255 264 271 264 16 273 280 279 288 33 29 21 9 1 334 356 356 353 357 21 336 17 41 6 6 19 60 40 79 59 20 16 24 17 17 41 34 27 33 43 29 9 14
242 229 200 209 218 207 199 211 203 225 247 261 260 252 333 265 246 249 212 274 35 358 35 358 340 332 339 349 355 350 0 345 330 61 35 18 10 14 24 22 39 52 19 360 24 26 37 39 40 53 59 57 32 11
240 235 215 249 228 197 217 229 282 240 238 241 241 251 261 248 251 234 97 96 3 345 337 316 359 337 317 324 354 342 320 6 8 14 23 38 50 35 29 31 35 13 6 15 1 7 12 58 41 33 48 58 40 25
229 244 217 203 215 211 231 210 212 225 218 223 191 227 224 211 237 114 199 219 310 322 311 304 295 289 308 326 316 307 301 277 214 241 225 115 74 52 36 57 53 276 2 45 7 19 354 10 42 44 39 46 47 36
229 229 221 196 206 187 225 206 224 216 222 218 206 229 256 273 299 318 325 316 299 283 286 290 293 296 262 269 232 282 332 326 315 278 261 243 162 75 26 19 21 21 5 34 88 46 23 11 17 11 23 35 28 53
231 207 204 192 204 214 216 207 232 233 228 232 263 278 276 270 271 286 293 292 293 299 310 306 294 281 261 271 264 236 37 16 12 353 14 8 33 23 12 5 2 5 4 4 0 33 21 26 50 34 38 44 24 35
217 197 210 210 223 233 237 231 206 231 248 260 267 263 256 260 263 258 263 274 300 320 306 294 286 281 272 225 268 327 49 41 34 30 6 337 7 16 6 354 354 1 7 18 20 20 17 51 50 51 43 48 46 44
216 217 216 224 240 256 274 239 234 245 249 248 246 246 252 260 279 284 49 340 300 310 315 329 323 32 53 89 107 118 203 139 101 42 16 346 352 356 351 356 3 3 18 37 54 47 49 56 59 61 61 52 48 43
227 219 213 245 243 261 239 234 258 265 265 266 270 271 270 272 282 89 96 44 27 25 23 34 35 51 60 65 63 68 39 73 78 83 78 39 21 354 328 8 13 21 42 43 58 61 62 67 65 64 60 58 55 49